Previsão horária em Lisboa

Hoje, 17 Maio, Segunda-feira

Tempo Temperatura Precipitação Vento Pressão Humidade
00:00 +14°C° 0 mm 4 m/s 761 mmHg 86%
01:00 +13°C° 0 mm 4 m/s 760 mmHg 87%
02:00 +13°C° 0 mm 4 m/s 760 mmHg 87%
03:00 +13°C° 0 mm 4 m/s 761 mmHg 86%
04:00 +13°C° 0 mm 4 m/s 761 mmHg 86%
05:00 +13°C° 0 mm 3 m/s 761 mmHg 86%
06:00 +15°C° 0 mm 4 m/s 761 mmHg 76%
07:00 +16°C° 0 mm 5 m/s 762 mmHg 66%
08:00 +19°C° 0 mm 5 m/s 762 mmHg 56%
09:00 +21°C° 0 mm 5 m/s 762 mmHg 49%
10:00 +22°C° 0 mm 5 m/s 762 mmHg 43%
11:00 +25°C° 0 mm 4 m/s 761 mmHg 36%
12:00 +25°C° 0 mm 5 m/s 761 mmHg 36%
13:00 +25°C° 0 mm 5 m/s 761 mmHg 36%
14:00 +24°C° 0 mm 6 m/s 761 mmHg 36%
15:00 +23°C° 0 mm 6 m/s 761 mmHg 40%
16:00 +21°C° 0 mm 6 m/s 761 mmHg 44%
17:00 +20°C° 0 mm 6 m/s 761 mmHg 49%
18:00 +19°C° 0 mm 5 m/s 761 mmHg 53%
19:00 +17°C° 0 mm 4 m/s 762 mmHg 58%
20:00 +16°C° 0 mm 3 m/s 762 mmHg 63%
21:00 +16°C° 0 mm 3 m/s 762 mmHg 66%
22:00 +15°C° 0 mm 2 m/s 762 mmHg 68%
23:00 +15°C° 0 mm 2 m/s 762 mmHg 70%

Amanhã, 18 Maio, Terça-feira

Tempo Temperatura Precipitação Vento Pressão Humidade
00:00 +15°C° 0 mm 2 m/s 762 mmHg 72%
01:00 +15°C° 0 mm 2 m/s 762 mmHg 74%
02:00 +14°C° 0 mm 2 m/s 761 mmHg 76%
03:00 +15°C° 0 mm 2 m/s 762 mmHg 78%
04:00 +15°C° 0 mm 2 m/s 762 mmHg 81%
05:00 +15°C° 0 mm 2 m/s 762 mmHg 83%
06:00 +17°C° 0 mm 2 m/s 762 mmHg 77%
07:00 +19°C° 0 mm 2 m/s 762 mmHg 71%
08:00 +22°C° 0 mm 3 m/s 762 mmHg 65%
09:00 +24°C° 0 mm 3 m/s 762 mmHg 62%
10:00 +25°C° 0 mm 4 m/s 762 mmHg 59%
11:00 +26°C° 0 mm 4 m/s 762 mmHg 56%
12:00 +26°C° 0 mm 5 m/s 762 mmHg 58%
13:00 +25°C° 0 mm 5 m/s 762 mmHg 60%
14:00 +24°C° 0 mm 6 m/s 762 mmHg 62%
15:00 +23°C° 0 mm 6 m/s 762 mmHg 60%
16:00 +22°C° 0 mm 7 m/s 762 mmHg 57%
17:00 +22°C° 0 mm 7 m/s 762 mmHg 55%
18:00 +20°C° 0 mm 6 m/s 762 mmHg 62%
19:00 +17°C° 0 mm 6 m/s 763 mmHg 68%
20:00 +15°C° 0 mm 6 m/s 763 mmHg 75%
21:00 +14°C° 0 mm 5 m/s 763 mmHg 75%
22:00 +14°C° 0 mm 5 m/s 763 mmHg 76%
23:00 +13°C° 0 mm 5 m/s 763 mmHg 77%

Depois de amanhã, 19 Maio, Quarta-feira

Tempo Temperatura Precipitação Vento Pressão Humidade
00:00 +13°C° 0 mm 5 m/s 763 mmHg 77%
01:00 +13°C° 0 mm 5 m/s 763 mmHg 77%
02:00 +13°C° 0 mm 5 m/s 763 mmHg 77%
03:00 +13°C° 0 mm 5 m/s 763 mmHg 77%
04:00 +13°C° 0 mm 5 m/s 763 mmHg 78%
05:00 +13°C° 0 mm 5 m/s 763 mmHg 78%
06:00 +15°C° 0 mm 5 m/s 763 mmHg 67%
07:00 +17°C° 0 mm 6 m/s 763 mmHg 55%
08:00 +20°C° 0 mm 6 m/s 763 mmHg 44%
09:00 +22°C° 0 mm 6 m/s 763 mmHg 39%
10:00 +23°C° 0 mm 6 m/s 763 mmHg 34%
11:00 +26°C° 0 mm 7 m/s 763 mmHg 28%
12:00 +26°C° 0 mm 7 m/s 763 mmHg 28%
13:00 +26°C° 0 mm 7 m/s 762 mmHg 28%
14:00 +27°C° 0 mm 8 m/s 762 mmHg 28%
15:00 +24°C° 0 mm 8 m/s 762 mmHg 32%
16:00 +23°C° 0 mm 8 m/s 762 mmHg 36%
17:00 +21°C° 0 mm 8 m/s 762 mmHg 40%
18:00 +20°C° 0 mm 7 m/s 762 mmHg 48%
19:00 +17°C° 0 mm 6 m/s 763 mmHg 55%
20:00 +15°C° 0 mm 6 m/s 763 mmHg 62%
21:00 +15°C° 0 mm 5 m/s 763 mmHg 65%
22:00 +14°C° 0 mm 4 m/s 762 mmHg 69%
23:00 +14°C° 0 mm 4 m/s 762 mmHg 72%

20 Maio, Quinta-feira

Tempo Temperatura Precipitação Vento Pressão Humidade
00:00 +14°C° 0 mm 4 m/s 762 mmHg 73%
01:00 +14°C° 0 mm 4 m/s 762 mmHg 75%
02:00 +13°C° 0 mm 3 m/s 761 mmHg 76%
03:00 +13°C° 0 mm 3 m/s 761 mmHg 76%
04:00 +14°C° 0 mm 3 m/s 761 mmHg 75%
05:00 +14°C° 0 mm 3 m/s 761 mmHg 75%
06:00 +18°C° 0 mm 3 m/s 761 mmHg 63%
07:00 +21°C° 0 mm 3 m/s 761 mmHg 52%
08:00 +25°C° 0 mm 3 m/s 761 mmHg 41%
09:00 +27°C° 0 mm 4 m/s 761 mmHg 37%
10:00 +29°C° 0 mm 4 m/s 761 mmHg 33%
11:00 +32°C° 0 mm 4 m/s 761 mmHg 29%
12:00 +32°C° 0 mm 4 m/s 760 mmHg 29%
13:00 +33°C° 0 mm 5 m/s 760 mmHg 28%
14:00 +33°C° 0 mm 5 m/s 760 mmHg 28%
15:00 +30°C° 0 mm 6 m/s 760 mmHg 34%
16:00 +28°C° 0 mm 7 m/s 760 mmHg 41%
17:00 +24°C° 0 mm 7 m/s 760 mmHg 47%
18:00 +23°C° 0 mm 7 m/s 760 mmHg 50%
19:00 +21°C° 0 mm 6 m/s 760 mmHg 54%
20:00 +19°C° 0 mm 5 m/s 761 mmHg 57%
21:00 +17°C° 0 mm 5 m/s 760 mmHg 59%
22:00 +17°C° 0 mm 5 m/s 760 mmHg 61%
23:00 +16°C° 0 mm 5 m/s 760 mmHg 63%

21 Maio, Sexta-feira

Tempo Temperatura Precipitação Vento Pressão Humidade
00:00 +16°C° 0 mm 5 m/s 760 mmHg 65%
01:00 +16°C° 0 mm 5 m/s 760 mmHg 68%
02:00 +15°C° 0 mm 5 m/s 760 mmHg 71%
03:00 +15°C° 0 mm 5 m/s 760 mmHg 71%
04:00 +15°C° 0 mm 4 m/s 760 mmHg 72%
05:00 +15°C° 0 mm 4 m/s 760 mmHg 73%
06:00 +17°C° 0 mm 5 m/s 761 mmHg 68%
07:00 +20°C° 0 mm 6 m/s 761 mmHg 63%
08:00 +21°C° 0 mm 7 m/s 761 mmHg 58%
09:00 +22°C° 0 mm 8 m/s 761 mmHg 54%
10:00 +24°C° 0 mm 8 m/s 761 mmHg 51%
11:00 +26°C° 0 mm 8 m/s 761 mmHg 47%
12:00 +26°C° 0 mm 8 m/s 761 mmHg 47%
13:00 +24°C° 0 mm 9 m/s 761 mmHg 47%
14:00 +24°C° 0 mm 9 m/s 760 mmHg 48%
15:00 +23°C° 0 mm 9 m/s 761 mmHg 48%
16:00 +21°C° 0 mm 9 m/s 761 mmHg 48%
17:00 +18°C° 0 mm 10 m/s 761 mmHg 48%
18:00 +17°C° 0 mm 9 m/s 761 mmHg 53%
19:00 +16°C° 0 mm 9 m/s 761 mmHg 58%
20:00 +13°C° 0 mm 9 m/s 761 mmHg 63%
21:00 +13°C° 0 mm 9 m/s 761 mmHg 63%
22:00 +13°C° 0 mm 9 m/s 761 mmHg 64%
23:00 +13°C° 0 mm 8 m/s 761 mmHg 64%

22 Maio, Sábado

Tempo Temperatura Precipitação Vento Pressão Humidade
00:00 +12°C° 0 mm 8 m/s 761 mmHg 66%
01:00 +12°C° 0 mm 8 m/s 761 mmHg 68%
02:00 +12°C° 0 mm 8 m/s 761 mmHg 70%
03:00 +12°C° 0 mm 8 m/s 761 mmHg 70%
04:00 +12°C° 0 mm 8 m/s 761 mmHg 70%
05:00 +12°C° 0 mm 8 m/s 761 mmHg 69%
06:00 +15°C° 0 mm 8 m/s 761 mmHg 61%
07:00 +16°C° 0 mm 8 m/s 761 mmHg 52%
08:00 +18°C° 0 mm 9 m/s 762 mmHg 43%
09:00 +19°C° 0 mm 9 m/s 761 mmHg 40%
10:00 +22°C° 0 mm 9 m/s 761 mmHg 36%
11:00 +23°C° 0 mm 9 m/s 761 mmHg 32%
12:00 +22°C° 0 mm 9 m/s 761 mmHg 33%
13:00 +22°C° 0 mm 10 m/s 761 mmHg 34%
14:00 +22°C° 0 mm 10 m/s 761 mmHg 36%
15:00 +21°C° 0 mm 10 m/s 761 mmHg 41%
16:00 +19°C° 0 mm 10 m/s 761 mmHg 47%
17:00 +18°C° 0 mm 9 m/s 761 mmHg 52%
18:00 +17°C° 0 mm 9 m/s 761 mmHg 56%
19:00 +15°C° 0 mm 9 m/s 762 mmHg 60%
20:00 +13°C° 0 mm 9 m/s 762 mmHg 64%
21:00 +13°C° 0 mm 8 m/s 762 mmHg 63%
22:00 +13°C° 0 mm 8 m/s 762 mmHg 62%
23:00 +13°C° 0 mm 8 m/s 762 mmHg 61%
Mostrar mais

Necessitamos do seu Consentimento

A Meteoprog e os seus Fornecedores de Serviços podem armazenar e aceder a dados pessoais como cookies, identificadores do dispositivo ou outras tecnologias semelhantes existentes no seu dispositivo e processar estes dados para personalizar conteúdos e anúncios, assim como funcionalidades nas redes sociais e análise de tráfego.

  • Armazenar e/ou aceder a informações no seu dispositivo

    Os cookies, identificadores do dispositivo ou outras informações podem ser armazenados ou acedidos no seu dispositivo, para os fins acima indicados.

  • Anúncios e conteúdos personalizados, medição de anúncios e conteúdos, dados sobre o público-alvo e desenvolvimento de produtos

    Os anúncios e os conteúdos podem ser personalizados com base num perfil. Podem ser adicionados dados adicionais para uma maior personalização dos anúncios e dos conteúdos. A eficácia dos anúncios e dos conteúdos pode ser medida. Podem ser obtidas informações sobre o público que visualizou os anúncios e os conteúdos. Estes dados podem ser usados para desenvolver ou melhorar sistemas, softwares ou a experiência do utilizador.

Ao clicar em "Eu concordo”, permitirá o uso de cookies, identificadores do dispositivo e web beacons mencionados ou outras tecnologias semelhantes. As configurações do navegador do seu dispositivo podem ser alteradas.

Para certos fins, podem ser invocados interesses legítimos ao invés de consentimento. Pode ler mais informação sobre este assunto na nossa Política de Privacidade e Cookies.